TimeEDT,TemperatureF,Dew PointF,Humidity,Sea Level PressureIn,VisibilityMPH,Wind Direction,Wind SpeedMPH,Gust SpeedMPH,PrecipitationIn,Events,Conditions,WindDirDegrees,DateUTC
12:53 AM,77.0,66.9,71,29.88,9.0,SW,3.5,-,N/A,,Clear,230,2013-07-20 04:53:00
1:53 AM,75.0,68.0,79,29.87,8.0,Calm,Calm,-,N/A,,Clear,0,2013-07-20 05:53:00
2:53 AM,75.0,68.0,79,29.86,8.0,WSW,4.6,-,N/A,,Clear,250,2013-07-20 06:53:00
3:53 AM,75.0,68.0,79,29.83,8.0,Calm,Calm,-,N/A,,Clear,0,2013-07-20 07:53:00
4:53 AM,73.9,68.0,82,29.83,7.0,Calm,Calm,-,N/A,,Clear,0,2013-07-20 08:53:00
5:53 AM,73.0,68.0,84,29.86,5.0,Calm,Calm,-,N/A,,Haze,0,2013-07-20 09:53:00
6:53 AM,73.9,70.0,87,29.86,4.0,Calm,Calm,-,N/A,,Clear,0,2013-07-20 10:53:00
7:53 AM,75.0,69.1,82,29.86,5.0,SW,3.5,-,N/A,,Haze,220,2013-07-20 11:53:00
8:53 AM,79.0,70.0,74,29.86,7.0,West,6.9,-,0.00,,Clear,260,2013-07-20 12:53:00
9:53 AM,82.0,70.0,67,29.86,8.0,West,11.5,-,N/A,,Clear,270,2013-07-20 13:53:00
10:53 AM,84.9,71.1,63,29.85,8.0,WSW,10.4,-,N/A,,Clear,250,2013-07-20 14:53:00
11:53 AM,87.1,70.0,57,29.83,7.0,WSW,13.8,-,N/A,,Clear,250,2013-07-20 15:53:00
12:53 PM,88.0,72.0,59,29.81,8.0,SW,12.7,19.6,N/A,,Clear,220,2013-07-20 16:53:00
1:53 PM,88.0,70.0,55,29.82,8.0,West,17.3,27.6,N/A,,Partly Cloudy,260,2013-07-20 17:53:00
2:53 PM,87.1,70.0,57,29.79,8.0,WSW,15.0,-,N/A,,Partly Cloudy,240,2013-07-20 18:53:00
3:53 PM,87.1,69.1,55,29.79,9.0,West,15.0,-,N/A,,Clear,270,2013-07-20 19:53:00
4:53 PM,87.1,70.0,57,29.78,9.0,West,10.4,-,N/A,,Clear,270,2013-07-20 20:53:00
5:53 PM,86.0,69.1,57,29.78,8.0,West,12.7,-,N/A,,Clear,270,2013-07-20 21:53:00
6:53 PM,84.9,70.0,61,29.79,7.0,West,8.1,-,N/A,,Clear,260,2013-07-20 22:53:00
7:53 PM,84.9,68.0,57,29.81,8.0,West,10.4,-,N/A,,Clear,260,2013-07-20 23:53:00
8:53 PM,82.0,64.9,56,29.82,10.0,West,6.9,-,N/A,,Clear,270,2013-07-21 00:53:00
9:53 PM,80.1,64.0,58,29.84,10.0,West,6.9,-,N/A,,Clear,280,2013-07-21 01:53:00
10:53 PM,79.0,64.9,62,29.85,10.0,NW,5.8,-,N/A,,Scattered Clouds,310,2013-07-21 02:53:00
11:53 PM,75.9,66.0,71,29.86,10.0,WNW,4.6,-,N/A,,Mostly Cloudy,290,2013-07-21 03:53:00